Location: Culleoka
(33.1312°N, 96.4919°W)
Time: 03:47:28
(UTC+00:00)

H-2A R/B - Pass Details

Date: 11 July 2022
Orbit: 577 x 651 km, 98.5° (Epoch: 07 August)

Event Time Altitude Azimuth Distance (km) Brightness Sun altitude
Rises 02:02:28 0° 25° (NNE) 2,967 5.6 -5.4°
Reaches altitude 10° 02:04:55 10° 36° (NE) 2,057 4.7 -5.8°
Maximum altitude 02:08:53 30° 98° (E) 1,156 3.0 -6.5°
Drops below altitude 10° 02:12:49 10° 160° (SSE) 2,047 4.3 -7.2°
Sets 02:15:14 0° 171° (S) 2,949 5.1 -7.7°
